Bonaire, Netherlands

8:53 AM AST on April 22, 2018 (GMT -0400)
Flamingo

Weather History for TNCB - December, 2012

Change the Weather History Date:

Saturday, December 8, 2012

  Actual Average Record
Temperature  
Mean Temperature 84 °F -  
Max Temperature 88 °F 85 °F 89 °F (1997)
Min Temperature 81 °F 77 °F 75 °F (2013)
Cooling Degree Days 20    
Growing Degree Days 34 (Base 50)    
Moisture  
Dew Point 76 °F    
Average Humidity 77    
Maximum Humidity 84    
Minimum Humidity 65    
Precipitation  
Precipitation 0.00 in - - ()
Sea Level Pressure  
Sea Level Pressure 29.89 in    
Wind  
Wind Speed 15 mph ()    
Max Wind Speed 22 mph    
Max Gust Speed -    
Visibility 6.2 miles    
Events      
Averages and records for this station are not official NWS values.
T = Trace of Precipitation, MM = Missing Value Source: Averaged Metar Reports

Daily Weather History Graph

Daily Weather History Graph

Search for Another Location

Airport or City:

Astronomy

Dec. 08, 2012 Rise Set
Actual Time 6:42 AM AST 6:08 PM AST
Civil Twilight 6:19 AM AST 6:31 PM AST
Nautical Twilight 5:52 AM AST 6:57 PM AST
Astronomical Twilight 5:26 AM AST 7:23 PM AST
Moon 1:47 AM AST (12/8) 1:57 PM AST (12/8)
Length of Visible Light 12h 11m
Length of Day
11h 26m
Waning Crescent, 29% of the Moon is Illuminated
Dec 8
Waning Crescent
Dec 13
New
Dec 20
First Quarter
Dec 28
Full
Jan 4
Last Quarter

Hourly Weather History & Observations

Time (AST) Temp. Heat Index Dew Point Humidity Pressure Visibility Wind Dir Wind Speed Gust Speed Precip Events Conditions
12:00 AM 82.4 °F 89.5 °F 75.2 °F 79% 29.86 in - North - - N/A   Unknown
1:00 AM 82.4 °F 90.9 °F 77.0 °F 84% 29.86 in - North - - N/A   Unknown
2:00 AM 82 °F - 76 °F 76%  in - East 15.0 mph - -   Clear
2:00 AM 82.4 °F 89.5 °F 75.2 °F 79% 29.86 in - North - - N/A   Unknown
3:00 AM 82.4 °F 90.9 °F 77.0 °F 84% 29.83 in - North - - N/A   Unknown
4:00 AM 82.4 °F 89.5 °F 75.2 °F 79% 29.83 in - North - - N/A   Unknown
5:00 AM 82 °F - 76 °F 77%  in - East 11.5 mph - -   Clear
5:00 AM 82.4 °F 89.5 °F 75.2 °F 79% 29.83 in - North - - N/A   Unknown
6:00 AM 82.4 °F 89.5 °F 75.2 °F 79% 29.86 in - North - - N/A   Unknown
7:00 AM 82.4 °F 89.5 °F 75.2 °F 79% 29.89 in - North - - N/A   Unknown
8:00 AM 85 °F - 76 °F 68% 29.92 in 22 mi East 18.4 mph - -   Scattered Clouds
8:00 AM 84.2 °F 92.3 °F 75.2 °F 74% 29.92 in 6.2 mi East 18.4 mph - N/A   Partly Cloudy
9:00 AM 86.0 °F 96.9 °F 77.0 °F 74% 29.92 in 6.2 mi East 19.6 mph - N/A   Partly Cloudy
10:00 AM 87.8 °F 99.7 °F 77.0 °F 70% 29.95 in 6.2 mi East 20.7 mph - N/A   Partly Cloudy
11:00 AM 87 °F - 77 °F 65% 29.96 in 22 mi East 19.6 mph - -   Partly Cloudy
11:00 AM 86.0 °F 96.9 °F 77.0 °F 74% 29.95 in 6.2 mi East 19.6 mph - N/A   Scattered Clouds
12:00 PM 87.8 °F 99.7 °F 77.0 °F 70% 29.92 in 6.2 mi East 20.7 mph - N/A   Scattered Clouds
1:00 PM 87.8 °F 99.7 °F 77.0 °F 70% 29.89 in 6.2 mi ESE 21.9 mph - N/A   Scattered Clouds
2:00 PM 84.2 °F 94.1 °F 77.0 °F 79% 29.86 in - ESE 19.6 mph - N/A   Unknown
3:00 PM 84.2 °F 92.3 °F 75.2 °F 74% 29.86 in - East 20.7 mph - N/A   Unknown
4:00 PM 86.0 °F 96.9 °F 77.0 °F 74% 29.83 in 6.2 mi East 16.1 mph - N/A   Scattered Clouds
5:00 PM 86.0 °F 95.1 °F 75.2 °F 70% 29.83 in - East 19.6 mph - N/A   Unknown
6:00 PM 84.2 °F 92.3 °F 75.2 °F 74% 29.86 in - East 16.1 mph - N/A   Unknown
7:00 PM 82.4 °F 89.5 °F 75.2 °F 79% 29.86 in - East 15.0 mph - N/A   Unknown
8:00 PM 83 °F - 76 °F 75% 29.91 in 22 mi East 16.1 mph - -   Scattered Clouds
8:00 PM 82.4 °F 90.9 °F 77.0 °F 84% 29.89 in 6.2 mi East 15.0 mph - N/A   Scattered Clouds
9:00 PM 82.4 °F 90.9 °F 77.0 °F 84% 29.92 in - East 15.0 mph - N/A   Unknown
10:00 PM 82.4 °F 90.9 °F 77.0 °F 84% 29.92 in - East 15.0 mph - N/A   Unknown
11:00 PM 83 °F - 76 °F 75%  in - East 15.0 mph - -  
11:00 PM 82.4 °F 90.9 °F 77.0 °F 84% 29.92 in - East 17.3 mph - N/A   Unknown